Location: Eschertshofen
(49.3064°N, 11.5756°E)
Time: 11:19:58
(UTC+00:00)

SJ-6B - Pass Details

Date: 18 September 2020
Orbit: 511 x 580 km, 97.6° (Epoch: 23 October)

Event Time Altitude Azimuth Distance (km) Brightness Sun altitude
Exits shadow 17:45:40 - 116° (ESE) 2,134 5.2 -5.1°
Reaches altitude 10° 17:46:56 10° 104° (ESE) 1,737 4.7 -5.3°
Maximum altitude 17:49:25 17° 62° (ENE) 1,347 4.4 -5.7°
Drops below altitude 10° 17:51:56 10° 20° (NNE) 1,755 5.3 -6.1°
Sets 17:54:35 0° 1° (N) 2,657 6.4 -6.5°
